Wind_Speed
22 22 25 26 26 22 20 19 18 19 19 20 21 22 21 19 18 16 15 14 14 14 14 13 12 12 13 14 14 14 13 12 12 12 12 13 15 16 15 15 15 14 14 15 15 16 17 17 17 17 16 15 14 13 13 14 14 13 14 14 14 14 14 15 15 15 15 15 16 16 16 17 17 17 17 17 18 19 20 21 21 22 22 22 22
24 25 26 26 25 24 23 23 23 23 21 21 22 23 23 21 19 17 16 16 16 17 17 16 14 13 14 14 14 14 13 13 14 14 14 15 15 16 16 17 17 17 17 17 17 17 17 17 17 17 17 16 15 14 14 13 14 14 14 14 15 15 15 16 17 18 18 18 18 18 19 20 20 20 20 20 20 20 21 22 22 23 23 24 24
26 25 25 26 27 27 26 25 26 25 24 24 23 24 24 24 22 19 18 17 17 18 19 18 17 16 15 16 16 15 16 17 17 17 17 17 17 17 17 18 19 19 20 20 20 20 19 18 18 17 17 17 16 16 15 14 13 14 14 14 15 15 16 16 17 18 20 20 20 21 21 22 23 23 23 23 23 23 23 24 24 25 25 25 26
27 27 27 27 27 28 28 27 26 25 26 26 26 25 25 25 24 22 20 20 19 19 20 21 20 19 18 19 20 20 20 21 21 21 21 21 21 20 20 20 21 21 22 22 22 22 22 21 21 20 19 19 18 18 17 16 16 15 15 15 16 16 17 18 18 19 20 22 23 23 23 24 25 26 26 26 26 26 26 27 27 27 27 27 28
27 28 28 28 29 30 28 26 24 25 26 27 28 29 28 27 27 25 24 24 24 24 23 23 22 22 22 23 24 25 25 25 24 24 25 26 25 25 24 23 24 24 24 24 24 25 25 24 23 23 22 21 20 20 19 19 19 18 18 18 18 19 19 20 20 21 22 23 24 25 25 25 26 27 27 27 28 29 29 30 31 30 30 31 31
27 25 25 27 29 27 23 23 26 28 27 26 27 28 29 27 26 26 26 27 28 28 27 27 27 27 26 26 26 27 28 28 28 28 29 31 32 33 33 30 27 25 25 25 25 26 27 26 25 24 24 24 23 22 22 22 21 20 20 20 21 22 22 22 23 23 24 24 25 26 27 27 28 29 29 29 29 30 31 31 32 33 33 34 35
28 27 27 27 25 24 23 26 29 30 29 27 27 26 26 26 25 25 28 29 30 30 30 29 30 30 29 29 28 28 29 30 31 31 32 33 33 33 33 31 27 24 24 26 26 27 28 29 28 27 26 26 26 25 25 25 24 23 23 24 24 24 24 24 24 24 25 26 27 28 29 30 30 30 30 30 30 31 32 33 34 35 35 35 37
30 29 28 26 24 25 29 29 28 29 29 29 28 28 29 30 30 30 31 30 28 29 31 31 31 31 31 30 29 29 31 33 34 34 33 33 33 31 30 28 26 25 25 25 26 28 29 30 30 30 30 30 30 29 29 28 27 27 26 27 26 25 25 26 26 26 27 27 28 29 31 32 33 33 33 32 32 31 32 33 34 36 37 37 38
31 27 27 29 28 28 31 31 26 25 26 27 26 24 25 28 30 32 32 28 26 28 31 32 33 33 33 31 31 32 34 36 37 37 36 36 36 36 34 31 30 30 30 29 28 29 30 31 32 32 33 34 33 33 33 32 31 31 31 30 29 28 28 29 30 30 31 31 32 33 33 34 35 35 35 35 35 33 33 34 34 35 37 39 40
33 32 33 35 33 31 33 34 32 31 33 34 31 28 29 31 33 35 36 35 35 35 34 34 35 37 37 36 37 38 39 39 40 39 39 39 40 40 39 36 35 35 35 35 34 33 32 33 33 34 35 36 36 37 36 36 35 35 34 33 32 33 34 34 35 35 35 36 36 36 36 36 37 37 37 38 38 37 37 37 36 36 37 38 40
35 35 36 36 34 35 36 36 37 40 42 42 40 40 41 41 40 40 41 43 45 44 42 42 43 43 42 40 39 39 39 40 42 42 42 42 42 43 42 41 40 39 38 38 38 38 37 37 36 37 37 37 39 40 40 39 39 38 37 36 37 39 40 40 40 40 39 39 39 39 38 38 39 40 40 40 41 42 42 42 41 40 40 39 39
37 36 37 37 38 38 38 38 39 41 43 43 43 43 43 43 43 43 44 46 48 48 48 48 48 47 46 45 44 43 43 44 45 47 47 47 47 47 46 44 43 42 41 41 40 40 40 39 38 38 38 40 42 42 42 42 42 42 42 43 44 46 46 45 44 43 41 41 40 40 41 41 41 42 43 43 43 45 46 46 46 45 43 42 41
39 39 40 42 42 41 41 41 41 42 42 41 40 40 41 42 43 44 45 47 48 48 48 48 48 48 49 50 50 49 49 49 49 51 51 50 50 50 48 47 45 44 44 43 42 42 41 40 39 38 38 41 42 41 41 43 44 45 47 48 48 48 47 46 46 45 44 43 42 42 43 43 43 44 46 46 46 46 47 48 49 48 47 46 44
40 42 44 45 45 44 43 43 42 42 41 40 40 40 41 42 43 45 46 46 46 46 46 46 46 47 48 50 51 52 51 51 51 52 52 51 51 50 49 47 47 47 47 46 46 45 45 44 42 40 40 42 43 43 43 44 45 46 47 47 48 47 47 46 46 46 46 45 45 45 45 46 46 46 47 48 48 48 48 48 49 50 49 49 47
41 43 44 45 45 44 43 42 42 42 42 41 42 43 43 44 45 46 47 47 48 48 48 48 47 47 47 47 48 49 49 49 49 50 50 51 51 51 51 51 51 51 51 50 50 49 49 48 47 46 46 47 47 47 46 45 45 46 47 47 47 47 47 47 47 47 47 47 48 47 47 48 48 48 48 48 49 49 49 49 49 50 50 50 50
46 46 46 47 47 46 45 44 43 43 43 44 45 46 47 47 48 49 49 50 52 52 52 51 49 48 47 47 46 47 47 47 47 47 48 49 50 51 52 53 53 52 52 52 52 51 51 51 50 50 50 51 50 50 48 47 48 49 49 49 49 49 49 49 49 49 49 49 49 48 48 49 49 49 49 49 49 49 50 50 51 52 51 51 51
54 53 52 51 50 50 49 48 47 47 47 48 49 50 50 51 51 51 51 52 53 53 53 52 51 50 49 48 47 47 47 47 47 47 47 48 49 49 50 51 51 51 51 51 51 51 51 50 50 51 52 52 52 52 51 51 51 51 51 51 51 51 51 51 51 51 50 50 49 49 49 49 49 49 49 49 50 51 51 52 53 55 55 54 53
56 56 56 55 54 53 52 51 52 52 52 53 53 53 52 52 52 52 53 53 53 53 52 52 52 51 50 50 49 48 48 48 48 48 48 48 48 49 50 50 50 51 51 51 51 51 50 50 50 50 51 52 52 52 52 52 52 52 52 52 52 51 51 51 51 51 50 50 49 49 49 50 50 50 51 51 52 54 54 54 55 56 56 56 56
53 54 55 55 55 56 56 55 56 56 55 55 54 53 52 52 53 54 54 54 54 53 52 52 52 52 52 51 51 51 51 50 50 49 49 50 50 50 51 51 52 52 52 52 52 52 52 51 50 50 50 51 51 51 52 52 52 52 52 51 51 50 50 50 50 50 49 49 49 50 50 51 52 52 53 53 55 56 56 56 57 57 57 57 57
55 55 55 55 55 56 57 56 55 55 54 54 53 53 52 53 54 55 55 55 55 54 52 52 52 53 53 53 53 53 53 53 52 52 52 52 52 52 51 51 50 51 51 51 51 51 52 52 51 50 50 50 50 50 51 52 52 52 51 50 50 50 50 50 50 50 49 49 50 50 51 52 54 54 55 56 57 57 58 58 58 58 58 57 57
58 58 58 58 58 59 59 60 58 57 55 55 55 55 55 55 54 55 55 55 54 54 53 52 53 53 54 54 54 53 53 52 52 52 51 51 50 49 48 47 47 47 47 48 48 48 49 50 50 50 50 50 50 51 51 51 51 51 50 50 50 51 51 51 50 51 51 51 51 52 53 54 55 56 57 58 59 59 59 59 59 59 59 58 58
57 58 58 57 58 58 60 62 62 61 59 59 59 59 58 57 55 54 54 53 53 53 53 52 52 53 53 53 52 51 50 50 49 49 48 48 47 46 45 45 45 45 45 45 45 46 47 47 48 49 49 50 50 50 50 50 51 50 50 51 51 52 51 51 51 52 52 52 53 54 55 56 57 58 58 59 59 59 59 59 59 59 59 59 59
61 61 61 61 61 61 61 62 64 65 64 64 63 62 61 59 58 55 52 51 51 51 51 50 50 51 51 52 51 50 49 48 48 47 47 46 45 45 45 44 44 44 44 44 44 44 46 47 47 48 49 49 49 49 49 50 50 50 51 51 51 51 51 51 51 52 52 53 54 55 56 56 57 57 57 57 58 58 58 58 58 58 58 58 59
70 69 69 68 67 65 64 64 66 67 68 68 67 65 63 61 60 57 54 51 49 48 47 48 48 49 50 50 50 49 49 48 48 47 46 46 45 44 44 44 44 43 43 43 43 44 45 46 47 47 47 48 48 48 48 49 49 50 50 50 49 49 49 49 50 51 51 52 52 53 54 54 55 55 55 56 56 56 56 56 56 56 56 57 57
73 74 74 73 71 69 68 67 67 69 70 69 67 65 64 62 59 57 54 52 50 48 47 46 46 47 48 48 48 48 48 48 47 47 46 45 45 44 43 43 43 43 42 42 42 42 43 43 44 45 45 46 46 46 47 47 47 47 47 47 47 47 48 48 49 50 50 50 51 51 51 52 53 54 54 54 54 54 54 54 54 54 54 55 55
71 72 72 71 70 69 69 68 68 67 66 64 63 62 61 59 57 55 53 52 51 50 49 46 45 45 46 46 46 46 46 46 47 46 46 45 45 43 42 40 40 41 41 41 41 40 41 41 42 42 43 43 43 44 44 44 44 44 45 45 46 47 48 48 49 50 50 51 51 51 52 52 53 53 53 53 53 53 53 53 53 53 54 55 55
71 71 71 70 69 68 67 65 64 62 61 60 59 58 57 56 54 54 53 52 51 50 49 46 43 43 45 44 43 44 45 46 46 46 45 44 43 41 39 39 39 39 39 39 39 39 40 40 40 40 40 40 40 41 41 42 43 44 45 46 47 47 48 49 49 50 50 50 51 51 51 52 52 52 52 53 53 54 55 56 56 57 57 58 59
69 69 69 69 69 69 67 65 62 61 60 59 58 57 56 54 54 53 52 52 51 50 48 46 43 43 44 43 41 43 44 45 45 45 44 43 41 40 40 39 39 38 38 39 39 39 39 39 39 39 39 39 39 40 41 42 43 44 44 44 44 44 45 45 46 46 47 47 48 48 49 49 50 51 52 53 54 55 57 58 58 58 59 59 59
66 66 66 66 66 67 66 64 62 61 61 61 60 59 56 54 53 52 51 50 50 48 47 46 45 45 44 43 42 43 43 43 44 44 43 42 41 41 41 40 39 39 39 38 38 38 38 38 38 38 39 39 39 39 39 39 39 39 39 39 39 39 40 41 42 43 44 46 47 48 49 50 51 53 54 55 56 57 58 58 58 57 57 57 57
63 63 63 63 63 64 64 63 61 60 60 60 59 58 56 54 52 50 49 48 46 45 45 45 45 44 43 43 42 42 42 43 43 42 42 42 42 41 41 40 40 39 39 38 39 38 38 38 37 37 37 36 35 34 33 33 33 33 34 35 36 37 39 41 43 45 46 48 50 51 52 53 54 55 55 56 56 56 56 55 55 54 54 54 54
63 62 62 61 61 61 62 61 60 58 58 57 57 57 55 53 51 49 47 45 44 44 44 45 45 44 43 43 42 41 41 42 42 42 42 42 42 41 41 40 39 39 39 39 39 38 36 36 34 33 31 30 28 28 28 29 30 32 34 36 38 40 42 44 46 48 49 51 52 52 53 53 53 53 53 52 51 50 50 50 50 50 51 51 52
64 62 62 61 60 60 60 59 58 57 56 55 55 55 53 51 50 48 46 45 45 45 45 45 45 44 43 43 42 40 40 41 42 42 42 42 41 41 40 40 40 40 39 38 36 34 32 30 28 25 24 24 24 25 27 28 30 33 35 37 39 41 43 45 46 48 49 49 49 49 49 48 48 47 47 46 45 45 45 46 46 47 47 47 47
65 63 62 62 61 60 59 57 56 55 55 54 53 52 51 50 48 47 46 46 46 46 46 45 44 44 43 42 42 41 41 41 41 41 41 41 41 40 40 40 39 37 35 32 29 27 24 22 20 19 20 21 22 24 26 27 29 31 33 35 37 39 42 43 45 45 45 45 45 45 45 45 45 44 42 41 40 39 38 37 37 37 36 36 36
64 63 62 62 61 61 60 57 55 54 54 53 52 51 50 49 47 46 46 46 46 46 45 44 44 44 43 43 42 42 41 41 41 40 40 40 40 40 39 36 33 30 27 24 21 18 16 16 16 17 17 18 19 20 22 25 28 30 33 35 37 39 41 42 43 44 44 43 43 43 42 39 37 34 31 30 29 28 27 26 26 26 26 26 27
60 60 59 59 59 60 59 58 55 53 52 51 51 50 50 49 47 46 45 45 45 44 43 43 43 43 43 42 41 41 41 41 40 40 40 39 37 35 32 27 23 20 18 16 14 13 13 13 13 12 12 13 16 19 23 26 29 31 33 35 37 39 40 41 42 41 39 37 35 32 29 26 23 22 21 21 21 21 20 20 21 21 21 22 23
52 53 54 54 55 56 57 57 55 53 51 50 50 50 49 48 47 46 45 44 44 43 42 42 41 41 41 41 40 40 39 39 38 37 35 33 30 26 21 18 16 15 14 13 12 12 11 9 8 8 10 13 17 21 25 29 31 32 33 35 37 38 39 37 34 31 29 27 24 21 20 18 17 17 16 16 17 17 18 19 20 21 22 23 23
43 45 47 48 50 51 52 52 51 50 50 49 48 48 48 47 45 44 44 43 42 42 41 40 40 39 39 38 37 36 35 33 32 30 28 25 20 16 15 15 15 14 14 13 11 9 7 5 5 8 11 15 19 23 27 30 32 33 34 36 37 36 33 28 24 22 22 22 20 18 17 16 14 14 14 15 16 17 19 21 22 24 26 26 26
28 31 34 37 41 43 45 46 46 45 45 45 45 44 44 43 42 42 42 41 41 40 39 38 37 35 33 32 31 30 28 26 25 23 19 16 15 16 17 16 15 14 14 12 10 7 6 5 6 8 12 16 20 24 28 31 32 33 34 35 35 32 26 21 19 19 19 19 18 16 14 12 11 12 13 15 18 20 22 24 25 27 27 27 25
15 17 20 24 27 31 33 35 36 37 38 38 38 38 38 37 36 37 37 37 36 35 33 31 30 28 27 26 25 23 22 21 19 16 15 16 19 19 17 16 16 15 13 11 9 8 6 4 6 9 13 16 20 24 28 31 32 32 33 33 30 26 21 18 18 17 16 15 14 12 10 8 9 12 14 17 19 21 23 24 24 24 24 24 23
13 14 15 16 17 20 22 25 26 28 28 29 28 29 29 29 29 30 29 28 27 26 24 23 23 22 21 21 19 19 19 19 18 17 18 20 19 18 17 17 17 15 12 11 10 8 4 3 6 9 13 16 20 24 28 31 32 33 33 29 24 20 18 16 16 14 13 13 11 9 8 9 11 13 16 17 18 18 18 19 20 20 20 21 21
10 14 15 15 15 16 17 18 18 18 18 19 20 22 23 24 25 25 24 22 19 18 18 18 18 18 18 17 17 18 19 19 19 20 21 20 18 17 18 18 16 14 13 12 10 6 3 4 7 9 12 16 19 23 28 31 32 33 33 29 20 16 15 14 13 11 11 11 10 9 9 11 12 14 15 15 14 14 16 18 18 18 17 16 17
4 7 10 11 12 13 13 14 16 16 16 18 20 21 22 22 22 21 20 19 17 17 17 17 17 17 17 17 17 18 19 19 19 19 19 18 18 18 18 17 15 14 14 12 8 5 4 5 7 10 12 16 19 22 27 31 32 33 34 31 22 16 15 14 11 9 9 10 10 10 11 12 12 13 14 14 12 13 16 18 17 16 15 13 12
14 12 11 10 11 12 13 16 18 18 17 16 17 18 18 18 18 18 17 17 18 18 17 17 17 17 17 17 17 18 17 17 17 17 18 18 18 18 17 16 15 15 13 10 7 6 5 6 8 10 12 15 18 21 25 30 32 33 34 33 28 20 16 14 12 9 9 9 9 10 12 12 11 13 14 13 12 14 17 18 17 16 14 12 10
16 17 17 17 19 20 19 19 19 18 17 16 16 16 16 16 16 16 16 17 18 18 18 17 17 17 17 17 17 17 16 16 17 18 18 18 17 17 16 15 14 14 11 9 8 8 6 6 8 10 12 14 17 20 24 28 32 33 34 34 32 25 18 15 12 10 9 9 10 12 14 13 12 14 15 13 12 15 17 17 16 15 13 11 9
13 13 13 14 16 17 17 16 15 15 15 14 14 14 14 15 15 16 17 18 18 17 17 17 16 15 15 14 15 16 17 18 19 19 18 17 16 16 14 13 13 12 11 10 10 9 6 7 9 10 12 14 17 20 23 26 30 33 34 34 33 29 22 15 11 10 10 10 12 15 15 13 12 15 16 14 12 13 14 14 14 14 11 9 8
9 9 10 11 11 11 12 12 13 13 14 13 12 12 13 14 15 16 17 17 17 17 16 15 14 12 12 13 15 18 20 21 20 18 16 15 14 13 12 12 12 12 11 11 11 9 7 8 9 10 12 14 16 19 21 24 29 32 34 34 34 32 27 20 13 11 10 11 13 15 14 11 12 15 16 14 11 11 11 11 12 12 11 10 9
11 11 11 12 11 10 11 13 13 13 13 13 12 13 14 14 15 16 16 16 16 16 14 13 11 11 13 16 19 21 20 19 16 14 12 11 11 11 11 12 11 11 11 12 11 9 8 9 9 10 12 14 15 18 20 23 26 30 32 34 34 33 31 25 18 13 11 11 13 14 12 10 12 15 14 11 9 10 10 10 10 11 12 11 10
16 14 14 13 13 13 13 14 14 14 14 14 13 13 14 15 15 16 15 15 14 13 12 11 12 15 18 20 20 19 17 15 13 11 10 10 11 11 11 11 11 11 12 12 12 10 10 10 10 11 12 13 15 17 19 21 24 26 30 33 34 33 32 29 24 17 12 10 11 12 10 10 12 14 11 8 9 11 10 10 10 11 11 12 12
16 17 16 15 14 14 14 14 15 15 15 14 13 12 12 13 13 13 13 12 12 11 11 13 16 19 20 19 17 16 14 12 10 9 10 10 11 11 11 11 11 11 12 12 12 12 11 10 11 11 12 13 14 16 18 20 22 24 27 30 32 33 33 31 29 24 17 12 10 9 9 9 12 12 9 7 10 12 12 11 10 10 10 11 11
11 12 13 13 13 13 13 13 13 12 11 10 9 9 9 9 9 9 10 10 11 12 15 18 20 20 18 16 15 13 12 10 9 9 10 10 11 11 11 11 11 12 13 13 13 13 12 12 12 12 12 13 14 16 17 18 20 22 24 26 29 31 32 32 31 29 24 16 11 9 8 8 10 10 8 6 8 11 13 13 12 11 9 8 9
8 7 7 7 8 8 9 9 8 7 6 6 5 5 6 6 7 7 9 11 14 17 19 20 19 17 16 14 12 11 10 9 9 10 10 11 11 11 11 12 12 13 14 14 14 14 14 13 13 13 13 14 15 16 16 17 18 20 22 24 26 28 30 31 31 30 28 23 16 10 7 7 8 9 8 6 6 8 9 10 11 11 10 7 6
Wind_Direction
283 282 281 283 287 287 278 272 276 279 273 268 264 260 255 255 258 263 269 274 277 277 276 276 275 273 272 273 274 271 271 275 278 281 285 288 289 286 284 284 281 276 270 266 265 266 267 267 268 270 271 270 266 262 259 257 256 255 255 256 258 260 262 264 264 265 265 263 261 258 256 254 250 249 250 251 251 252 253 254 255 256 258 259 260
288 289 289 288 286 285 278 273 276 281 278 271 264 257 255 257 257 257 263 270 275 277 278 278 277 274 272 271 274 276 280 283 283 282 281 281 281 280 280 282 282 280 276 271 267 265 264 265 266 267 270 271 271 269 265 263 262 261 261 260 260 261 263 265 266 267 266 265 264 264 263 262 260 256 253 252 251 250 251 252 254 256 258 259 261
289 288 288 287 284 280 276 273 274 276 277 274 267 259 258 260 260 258 259 263 270 275 278 281 280 278 274 270 270 276 283 289 289 286 283 282 279 275 274 276 278 276 274 271 269 264 261 260 260 260 261 264 267 270 272 273 275 276 278 279 279 278 277 276 275 275 274 272 270 269 268 266 265 263 261 260 257 255 253 252 251 252 254 257 259
287 285 283 281 277 275 273 272 272 274 275 272 267 262 261 262 261 258 257 260 265 269 273 278 280 280 280 277 275 278 283 287 286 281 280 282 280 275 273 274 274 274 272 271 270 265 260 257 256 255 255 256 260 264 268 272 275 278 280 282 283 284 285 285 284 283 282 281 278 276 275 272 270 268 266 265 264 263 262 260 257 254 253 253 254
289 287 285 278 271 270 271 271 272 273 273 273 273 267 262 260 261 260 259 261 264 267 268 270 273 275 277 278 279 280 283 285 286 283 283 284 281 276 274 277 276 272 269 269 269 268 265 261 258 257 255 254 255 259 263 267 270 273 275 277 280 282 284 284 285 284 284 284 283 282 280 279 277 274 272 270 268 267 266 266 265 264 262 259 256
291 288 287 282 272 267 268 270 270 270 270 274 277 270 260 254 254 256 259 261 264 266 268 267 266 267 269 273 275 276 278 281 283 284 283 284 284 279 275 277 278 273 269 267 265 265 265 264 261 258 257 257 257 260 264 267 269 272 277 282 285 286 285 284 284 284 284 284 284 283 282 280 279 278 277 275 273 272 270 269 267 266 266 266 264
291 285 282 281 274 265 266 271 272 270 270 272 273 270 262 254 252 257 262 265 266 266 269 269 267 265 265 266 267 268 272 276 277 277 278 281 283 280 276 276 276 273 274 273 267 262 261 262 261 260 260 261 262 265 267 268 269 272 278 283 285 286 285 283 282 282 283 283 284 285 284 283 281 279 277 276 275 274 273 273 272 270 267 267 266
292 288 284 281 274 264 264 271 274 272 269 270 270 269 266 261 260 264 268 269 269 269 270 271 269 268 268 266 264 265 269 272 273 273 275 278 280 280 281 283 281 278 280 279 273 265 261 260 260 260 261 263 264 266 266 266 266 269 275 278 280 281 282 282 281 280 281 282 284 285 286 286 284 281 279 276 274 273 273 273 273 273 271 270 267
284 280 277 277 274 266 261 265 274 276 271 269 266 259 256 259 262 265 266 266 271 274 272 269 268 268 269 269 270 272 273 273 273 273 274 278 279 279 282 286 286 284 284 283 280 274 267 263 263 264 264 264 265 265 264 264 265 268 271 273 274 277 280 280 280 280 280 281 282 284 284 285 284 283 280 278 276 275 274 273 272 272 272 272 271
276 270 267 269 271 269 266 265 268 269 269 270 266 256 256 266 272 272 268 266 270 275 271 268 272 272 271 271 273 275 275 274 275 275 275 277 278 279 283 286 285 285 284 283 283 282 276 271 269 270 269 267 265 265 264 265 266 267 268 268 270 275 279 280 281 281 280 280 280 281 282 282 282 281 280 279 279 277 276 275 274 272 271 271 271
277 272 269 269 271 272 272 269 264 263 268 272 271 266 267 272 275 274 272 271 274 276 273 272 275 276 274 274 274 273 274 274 275 277 278 278 278 280 283 285 285 284 284 283 283 283 281 278 274 273 272 271 270 268 267 267 267 267 267 268 272 277 280 282 283 282 281 280 280 280 279 279 278 278 278 277 277 277 277 276 275 274 273 271 269
278 274 270 271 272 272 272 271 268 270 274 276 274 271 271 274 274 274 275 276 277 277 276 275 275 275 275 275 275 274 275 275 276 277 279 279 279 279 281 282 283 283 283 283 283 283 282 280 276 273 273 273 272 270 269 269 268 269 270 273 276 279 281 282 283 282 281 280 279 278 278 277 276 277 278 277 277 276 276 276 275 274 273 272 269
273 271 270 271 272 271 271 271 272 275 278 278 277 274 273 274 275 275 276 275 275 275 276 276 275 275 274 274 274 274 275 275 275 276 277 278 278 278 278 280 281 281 281 281 280 280 279 277 276 275 273 272 271 269 269 271 272 272 273 275 277 278 280 281 281 281 281 280 278 277 276 276 275 275 276 277 277 276 276 276 275 273 271 270 268
269 270 271 273 273 271 270 271 273 274 275 276 276 276 275 276 277 277 277 276 276 277 278 277 276 275 274 272 272 272 272 273 273 273 274 275 276 277 276 277 278 278 278 277 277 277 276 275 274 274 273 272 272 272 273 274 274 274 275 275 277 278 278 278 278 280 280 280 278 277 275 275 274 273 274 275 275 275 275 274 274 273 271 269 267
268 270 273 274 273 272 271 270 270 271 271 272 274 274 274 276 278 279 278 278 278 279 279 278 276 274 272 271 271 271 271 272 271 271 272 272 273 274 275 276 276 277 276 276 276 276 276 276 276 275 274 273 274 274 274 274 274 274 275 276 277 277 277 277 278 280 280 280 279 278 275 274 274 273 272 272 272 273 273 272 272 271 270 269 268
268 269 271 272 272 272 271 270 268 268 269 270 272 272 271 273 276 278 278 278 278 278 278 277 275 273 272 271 270 271 271 271 271 270 270 271 271 272 274 275 276 277 277 277 277 276 276 276 276 276 276 276 276 275 275 274 273 274 274 275 276 276 276 277 279 280 279 279 278 277 275 274 273 273 272 271 271 271 272 272 271 270 269 268 267
267 267 268 269 268 268 268 268 267 267 267 268 270 270 269 271 275 278 279 279 278 278 278 278 277 275 274 273 272 271 271 271 271 271 272 272 272 273 273 274 275 276 276 276 276 276 276 276 275 275 275 276 276 275 274 273 273 273 273 274 275 276 276 277 278 277 276 276 275 274 274 273 272 272 272 272 271 271 271 271 271 270 269 268 266
266 266 266 265 264 264 264 265 267 268 269 269 269 269 269 271 275 278 280 279 278 277 277 277 277 277 276 275 274 273 272 272 272 272 273 273 273 273 274 274 275 275 276 276 276 276 276 275 274 274 273 273 274 273 273 272 271 271 272 273 274 274 275 274 273 272 272 271 271 271 271 271 271 271 271 271 271 271 271 271 270 269 269 268 266
264 265 265 264 263 262 263 264 266 268 269 269 268 266 268 272 276 279 281 279 276 275 274 274 274 274 274 274 274 273 273 272 272 272 272 272 273 273 274 274 275 275 275 276 276 276 276 275 275 274 273 272 272 272 271 271 272 272 273 273 273 273 272 270 269 268 268 268 268 269 270 270 271 271 270 270 270 270 271 270 270 269 268 266 265
265 264 263 262 261 261 260 261 263 265 267 267 265 264 267 274 279 280 281 279 276 273 271 270 270 271 271 271 271 271 272 272 272 272 272 273 273 273 274 275 275 275 276 275 275 275 275 275 274 273 273 272 271 270 271 271 272 273 274 273 272 271 269 269 269 268 268 268 268 269 269 270 270 270 270 270 270 270 270 269 269 268 267 265 263
269 267 265 264 263 262 261 261 263 265 264 263 262 263 268 275 279 281 280 278 275 271 269 268 269 269 270 270 270 270 271 271 272 272 272 273 273 274 275 276 277 277 276 276 275 274 273 273 272 271 270 270 269 270 270 271 272 272 272 272 271 270 270 270 271 270 270 270 270 270 270 270 270 270 270 270 270 270 270 269 269 268 266 265 263
267 267 266 265 264 264 264 264 265 265 264 263 263 265 269 274 278 279 277 275 273 270 268 268 269 270 270 270 270 270 270 270 270 271 271 272 274 276 277 278 278 278 278 277 276 274 273 271 270 269 269 268 269 269 270 270 271 271 271 270 270 270 271 271 271 271 271 271 271 271 271 271 271 271 270 270 271 271 270 270 269 269 268 267 266
257 259 260 260 261 261 261 262 263 264 264 264 265 266 269 273 276 275 273 271 271 270 268 268 269 270 270 270 270 270 270 270 270 271 271 273 274 276 277 277 277 277 277 277 277 275 273 272 271 271 270 270 270 270 270 270 270 270 270 270 270 271 271 271 271 271 271 272 272 272 272 272 272 272 272 272 271 271 271 271 270 270 270 269 268
254 255 257 258 259 260 260 260 262 264 265 267 268 270 272 273 274 273 271 269 269 267 266 266 267 267 268 269 269 270 270 270 271 272 273 273 274 275 276 276 276 276 276 276 276 276 275 273 272 272 272 272 272 271 271 271 270 270 271 271 271 271 271 271 271 271 271 272 272 273 273 274 273 273 273 273 273 272 272 272 272 271 271 270 269
256 257 258 259 260 260 260 261 263 265 267 269 271 272 273 273 273 273 272 271 269 267 265 264 263 264 265 266 267 268 269 270 271 272 273 273 273 274 274 274 274 275 275 276 277 278 277 276 274 273 273 273 273 273 272 272 272 272 272 271 271 271 271 270 271 271 272 272 273 274 274 274 274 274 275 275 275 274 274 273 273 273 272 271 270
257 258 259 260 261 262 263 264 265 267 269 271 272 272 272 273 273 273 273 272 270 269 267 265 265 265 264 264 265 266 268 269 270 271 272 272 272 273 273 273 272 272 273 275 276 278 278 278 276 275 274 274 274 274 274 274 274 273 273 272 272 272 271 271 271 272 272 273 274 274 274 274 274 275 275 275 275 275 275 274 274 273 272 271 270
259 259 259 259 260 261 262 264 265 267 268 269 269 270 270 271 272 272 272 270 269 268 267 267 267 266 263 262 264 265 266 268 269 270 271 271 272 273 272 272 271 271 272 273 275 276 277 277 277 277 276 276 276 276 276 276 276 276 276 276 276 275 275 275 275 275 275 275 275 275 275 276 276 276 276 277 277 276 276 275 274 274 273 273 272
260 260 260 260 260 260 261 261 263 264 265 265 266 266 267 268 269 270 269 268 267 266 265 264 264 264 264 264 263 263 265 266 268 269 270 271 271 272 272 272 272 272 273 273 274 275 275 276 277 277 277 278 278 279 279 279 279 280 279 279 279 279 279 279 279 279 279 279 279 279 279 279 279 279 279 279 278 278 278 277 277 276 276 275 275
259 259 260 260 260 260 260 260 260 261 262 262 263 263 264 265 266 266 267 266 266 264 263 261 260 261 263 264 263 262 264 265 266 268 269 270 270 271 272 273 273 273 274 275 275 275 276 276 277 278 279 281 281 281 281 281 281 281 281 282 282 283 283 283 283 283 283 282 282 282 282 281 281 281 281 281 280 280 280 279 279 278 277 276 275
258 258 259 259 259 260 260 260 260 259 260 260 261 261 261 261 262 263 264 264 264 263 262 261 260 260 260 261 261 262 263 264 265 267 268 269 270 271 272 273 273 273 274 275 275 276 276 277 279 280 281 282 282 282 282 282 283 284 285 286 286 286 286 286 285 285 285 285 284 284 284 284 283 283 282 282 281 281 280 280 280 278 277 276 274
257 257 257 257 257 258 259 259 259 259 258 258 259 258 258 259 260 260 261 261 261 261 260 260 261 261 261 261 261 261 262 264 265 266 267 268 269 270 271 272 272 273 274 275 275 276 277 278 279 280 280 281 281 282 284 285 287 288 288 288 288 288 288 287 287 287 286 286 285 286 285 285 284 283 282 282 282 282 281 280 279 278 277 276 275
255 256 256 256 256 256 256 257 257 257 257 256 256 256 256 256 257 257 257 258 259 259 259 259 260 261 262 263 263 263 263 264 265 266 266 267 268 270 271 272 272 274 275 275 275 275 275 276 278 278 279 281 283 285 287 289 289 290 290 290 289 289 288 288 287 286 286 286 287 287 286 286 285 285 284 284 284 282 281 279 278 278 279 278 278
254 254 254 255 255 255 255 255 254 255 255 255 255 255 254 254 254 254 254 254 255 256 257 259 260 261 262 263 264 265 265 265 266 266 267 268 269 270 271 272 273 274 275 275 273 273 273 274 275 277 280 283 287 290 292 293 294 294 293 293 292 291 291 290 290 291 291 291 291 290 289 288 288 288 287 286 284 281 281 281 281 282 282 281 280
254 253 253 253 254 254 254 254 253 253 254 254 254 254 253 253 253 252 252 253 253 254 255 257 259 260 261 262 264 265 266 266 267 267 268 268 269 270 272 273 273 273 271 268 266 265 266 268 273 278 284 290 296 300 302 303 303 301 300 299 298 297 296 295 295 295 294 293 292 290 290 289 289 288 286 284 282 282 283 283 284 284 284 284 285
255 254 253 252 252 252 253 253 252 251 252 252 252 253 253 252 252 252 252 253 253 253 254 255 257 258 260 262 264 265 266 267 268 268 268 268 269 270 271 271 266 261 256 252 250 253 259 266 273 283 294 305 313 316 317 315 313 310 307 305 303 300 298 297 295 294 293 292 291 291 291 291 288 286 284 283 283 284 284 284 285 285 285 286 286
252 251 251 250 250 250 251 251 251 251 250 250 250 251 251 251 251 252 252 253 253 253 254 255 256 258 260 263 264 265 266 267 267 267 267 267 268 266 262 253 243 236 233 234 240 247 254 262 275 295 310 320 327 328 326 323 319 315 313 309 305 302 300 297 296 295 295 295 296 297 297 294 290 289 290 290 289 288 288 289 290 290 290 290 289
249 247 247 246 246 247 247 248 248 249 248 248 248 249 249 250 251 251 252 253 254 254 255 255 256 258 260 261 263 263 263 264 264 263 263 262 256 244 228 221 219 219 222 228 235 238 241 255 285 310 324 331 333 332 329 327 323 319 316 312 308 306 303 301 300 301 302 303 305 304 300 297 296 298 301 301 299 297 296 296 296 295 295 293 291
249 247 246 244 244 244 245 245 245 245 245 245 245 245 246 247 248 249 251 252 253 254 255 255 256 257 257 257 257 257 257 257 255 253 249 238 218 206 205 208 212 216 221 223 220 217 226 257 299 324 334 335 333 332 331 330 326 323 321 317 313 311 310 308 307 306 306 305 304 301 300 303 305 305 305 304 302 301 300 298 297 296 294 292 291
251 248 246 244 243 242 242 242 241 241 241 242 242 242 243 243 244 246 247 249 250 250 251 252 251 250 248 247 246 246 245 240 234 229 220 207 199 199 205 210 212 215 215 210 205 211 230 271 319 336 337 334 333 334 334 332 329 328 329 325 318 313 312 308 304 304 305 304 301 300 303 309 308 306 306 307 305 303 302 300 298 296 293 291 289
246 242 239 237 236 235 235 235 234 235 236 236 236 237 236 234 234 237 240 241 241 241 239 237 235 232 230 230 230 229 224 215 208 207 206 203 202 205 209 209 209 210 208 203 206 216 238 298 331 335 333 333 335 336 336 335 334 336 339 335 323 314 311 305 300 301 303 300 299 303 308 310 311 314 315 314 312 312 311 310 307 303 295 290 287
231 229 229 229 226 223 223 222 218 217 219 218 216 218 219 218 219 223 223 220 218 216 214 214 213 211 209 211 212 211 206 201 201 204 206 207 207 208 206 205 206 207 204 204 208 216 248 307 323 328 330 334 337 338 339 340 341 344 348 347 336 323 319 311 299 296 298 297 298 305 312 317 322 327 326 324 325 328 327 324 320 314 305 296 289
140 190 206 212 212 210 206 196 187 187 194 198 197 200 203 202 202 203 202 197 194 192 192 194 195 195 196 201 205 203 199 198 202 206 208 207 205 203 202 205 207 206 203 204 209 224 260 294 315 323 328 335 339 340 343 345 346 349 355 358 352 340 332 325 309 294 296 301 303 310 319 326 333 338 335 331 333 340 340 338 335 331 325 316 304
86 96 112 130 141 147 151 153 156 162 171 177 180 184 186 183 182 184 186 184 182 182 183 186 189 192 196 199 199 198 198 202 206 207 204 199 197 199 204 208 207 203 203 209 222 241 261 289 310 319 327 335 339 342 346 349 350 353 360 3 1 353 345 340 332 316 306 307 312 321 328 334 342 346 341 334 337 348 353 352 350 346 341 334 326
84 87 93 104 113 119 124 129 135 141 148 156 166 172 174 174 175 177 178 178 179 181 185 188 191 194 196 197 197 200 204 206 203 196 190 190 195 201 205 205 204 204 212 227 238 243 261 290 304 314 326 333 339 345 350 351 353 358 3 6 5 2 354 347 345 341 331 326 330 336 338 341 346 348 344 339 344 355 358 358 357 355 350 344 340
76 79 87 99 107 112 117 123 131 141 149 155 163 168 170 171 172 173 175 178 182 184 186 187 189 191 195 199 203 203 200 194 188 184 185 193 200 202 202 205 209 215 227 240 241 242 262 288 297 310 324 331 339 348 351 351 355 1 4 5 7 8 2 351 342 339 336 334 336 339 339 339 341 342 340 339 347 356 358 359 1 2 359 358 2
83 85 94 106 113 119 127 138 149 157 159 160 163 167 169 171 173 173 174 178 180 181 183 187 191 196 200 201 196 190 185 182 182 185 191 199 203 205 209 216 221 227 239 246 243 244 265 284 294 308 322 330 341 349 351 352 358 2 3 4 8 10 9 2 348 332 327 329 333 336 337 335 337 338 337 336 344 356 359 360 4 8 10 14 24
95 102 112 124 133 141 148 153 158 160 162 166 171 173 173 175 176 174 173 176 180 184 189 194 197 197 192 186 180 178 178 180 184 190 198 205 212 217 221 224 230 240 249 249 245 251 268 282 293 307 319 330 341 347 349 354 0 3 3 4 6 9 11 10 0 340 324 322 329 333 334 336 341 344 342 343 354 3 2 360 6 15 19 22 30
96 101 110 121 130 136 141 146 150 152 156 162 166 168 171 174 175 174 175 180 186 190 194 195 190 184 179 176 175 177 181 184 189 198 209 219 225 226 227 230 239 250 254 253 252 259 269 280 293 305 315 328 339 343 346 354 1 3 2 3 4 6 11 14 11 359 339 322 324 331 332 335 344 348 348 356 13 17 11 6 13 23 27 26 27
102 106 110 115 121 127 133 139 145 148 150 152 153 155 161 167 170 172 177 183 187 190 192 188 181 175 174 175 178 183 187 191 199 212 224 230 232 232 232 237 246 254 259 259 258 262 270 279 290 302 313 324 333 338 343 351 358 1 2 2 3 4 8 12 15 12 1 340 328 328 326 330 341 348 350 6 27 31 25 20 23 31 34 33 32
98 107 114 121 127 133 137 143 148 149 149 147 144 143 147 155 162 167 175 182 187 187 185 180 175 173 175 180 185 190 196 203 214 225 234 238 239 238 239 243 250 257 261 261 261 265 272 279 287 298 309 318 326 332 338 346 353 357 359 360 1 3 6 9 13 15 12 2 345 329 320 323 335 344 348 5 31 36 31 26 26 30 34 41 50
73 84 98 112 123 131 137 144 149 151 150 148 144 137 139 149 160 168 177 183 183 180 177 175 175 177 182 187 194 202 211 221 230 238 243 245 247 247 249 251 254 258 261 263 265 267 272 277 285 295 304 311 319 326 332 339 346 352 354 355 357 1 5 8 10 13 15 13 4 347 322 312 322 334 340 350 16 31 29 23 21 22 24 35 61
Height
5729 5729 5729 5729 5729 5730 5732 5733 5733 5734 5735 5735 5735 5734 5734 5734 5734 5734 5734 5735 5736 5736 5737 5737 5737 5737 5737 5737 5737 5737 5737 5738 5738 5738 5739 5739 5740 5740 5740 5740 5740 5740 5739 5739 5738 5738 5738 5738 5738 5738 5738 5738 5738 5738 5738 5737 5737 5737 5737 5737 5738 5738 5737 5737 5737 5737 5738 5738 5738 5738 5738 5738 5739 5739 5740 5740 5740 5741 5741 5740 5740 5740 5739 5739 5739
5726 5726 5726 5725 5726 5727 5729 5730 5730 5730 5731 5732 5732 5732 5732 5732 5732 5733 5733 5732 5733 5733 5734 5735 5735 5736 5736 5736 5736 5736 5736 5736 5736 5736 5736 5737 5737 5737 5738 5738 5738 5738 5737 5737 5736 5736 5736 5736 5736 5736 5736 5736 5736 5736 5736 5735 5735 5735 5736 5736 5736 5736 5736 5735 5735 5735 5735 5735 5736 5736 5736 5736 5736 5736 5737 5737 5738 5738 5738 5738 5738 5738 5737 5737 5737
5722 5722 5722 5723 5723 5724 5725 5726 5726 5726 5727 5728 5729 5730 5730 5730 5730 5731 5731 5731 5731 5731 5731 5732 5733 5733 5734 5734 5734 5734 5734 5735 5735 5734 5734 5734 5735 5735 5735 5736 5736 5736 5736 5735 5735 5735 5734 5734 5734 5734 5734 5734 5734 5734 5734 5734 5733 5733 5733 5733 5733 5733 5734 5733 5733 5733 5732 5732 5733 5733 5733 5733 5733 5734 5734 5734 5734 5735 5735 5735 5735 5735 5735 5734 5734
5718 5718 5718 5719 5720 5720 5721 5721 5722 5722 5723 5724 5724 5726 5727 5727 5727 5728 5728 5728 5729 5729 5729 5729 5730 5730 5731 5731 5731 5731 5732 5732 5732 5732 5732 5732 5733 5733 5733 5733 5733 5733 5733 5733 5733 5733 5733 5732 5732 5732 5732 5732 5732 5732 5732 5731 5731 5731 5731 5731 5731 5731 5731 5731 5731 5731 5730 5730 5729 5730 5730 5730 5730 5730 5731 5731 5731 5731 5731 5731 5731 5731 5731 5731 5730
5715 5715 5715 5715 5716 5716 5716 5717 5718 5718 5719 5720 5720 5720 5721 5722 5722 5723 5724 5725 5726 5727 5727 5727 5727 5727 5728 5728 5728 5728 5728 5728 5728 5728 5728 5728 5729 5730 5730 5730 5730 5730 5730 5730 5730 5730 5730 5730 5729 5729 5729 5729 5728 5728 5728 5728 5728 5728 5728 5729 5729 5728 5728 5728 5728 5728 5728 5727 5727 5726 5726 5726 5726 5726 5727 5728 5727 5727 5727 5727 5727 5727 5727 5727 5726
5712 5712 5713 5713 5713 5712 5712 5713 5714 5715 5716 5716 5715 5715 5716 5717 5718 5719 5720 5721 5722 5723 5724 5724 5724 5724 5725 5725 5725 5725 5724 5724 5724 5725 5725 5725 5725 5725 5726 5726 5726 5726 5727 5727 5727 5727 5726 5726 5726 5726 5725 5725 5725 5725 5725 5725 5725 5725 5725 5725 5725 5725 5725 5725 5725 5725 5725 5724 5724 5723 5723 5723 5723 5722 5723 5724 5724 5724 5723 5723 5723 5723 5723 5722 5722
5709 5709 5709 5710 5710 5709 5708 5710 5711 5711 5712 5712 5712 5712 5713 5715 5716 5716 5717 5717 5719 5720 5720 5720 5720 5720 5720 5721 5721 5721 5721 5721 5721 5722 5722 5722 5721 5720 5721 5722 5722 5723 5723 5724 5724 5724 5723 5723 5723 5722 5722 5722 5722 5723 5722 5722 5722 5722 5722 5722 5722 5722 5721 5721 5721 5721 5721 5721 5721 5720 5719 5719 5719 5719 5719 5719 5719 5720 5719 5719 5718 5718 5718 5718 5717
5705 5705 5704 5705 5706 5707 5706 5706 5707 5707 5708 5708 5708 5709 5711 5712 5713 5714 5714 5714 5715 5716 5716 5715 5715 5715 5716 5716 5717 5717 5718 5717 5717 5717 5718 5718 5718 5717 5717 5718 5718 5718 5719 5720 5720 5720 5720 5720 5719 5719 5719 5719 5719 5719 5719 5718 5719 5719 5719 5719 5719 5718 5718 5718 5718 5717 5717 5717 5717 5717 5716 5715 5715 5715 5715 5715 5715 5715 5715 5716 5715 5713 5713 5712 5712
5702 5702 5701 5701 5702 5704 5704 5704 5704 5704 5703 5704 5705 5706 5706 5707 5708 5709 5710 5710 5710 5711 5711 5711 5710 5710 5711 5711 5712 5712 5712 5712 5712 5712 5713 5713 5713 5713 5713 5713 5714 5714 5714 5715 5716 5716 5716 5716 5716 5716 5716 5715 5715 5714 5714 5714 5714 5715 5715 5715 5715 5714 5714 5714 5714 5714 5713 5713 5713 5713 5712 5711 5710 5710 5710 5710 5710 5710 5710 5711 5711 5710 5709 5708 5707
5699 5699 5698 5697 5698 5700 5700 5701 5702 5701 5700 5700 5702 5702 5702 5702 5704 5705 5706 5706 5705 5706 5706 5706 5706 5706 5706 5706 5707 5706 5706 5706 5706 5707 5708 5708 5708 5708 5708 5708 5709 5709 5710 5711 5711 5712 5712 5712 5711 5711 5711 5711 5710 5710 5709 5709 5709 5709 5709 5709 5709 5709 5709 5709 5709 5709 5709 5708 5708 5708 5707 5707 5706 5705 5705 5705 5704 5705 5705 5705 5706 5706 5705 5705 5703
5693 5694 5693 5692 5693 5694 5694 5696 5697 5696 5695 5696 5697 5698 5697 5697 5699 5700 5701 5700 5700 5700 5701 5701 5701 5701 5701 5701 5701 5701 5701 5701 5701 5702 5702 5702 5703 5703 5703 5703 5703 5704 5705 5705 5706 5706 5706 5706 5706 5706 5705 5705 5705 5704 5704 5704 5704 5704 5704 5704 5704 5703 5703 5703 5703 5703 5703 5703 5702 5702 5702 5702 5700 5699 5699 5699 5699 5698 5698 5699 5699 5699 5700 5700 5699
5688 5689 5688 5688 5689 5689 5690 5690 5691 5690 5690 5690 5691 5691 5692 5692 5693 5694 5694 5694 5694 5695 5695 5696 5696 5696 5696 5696 5696 5696 5697 5697 5697 5697 5697 5697 5697 5698 5698 5697 5698 5698 5698 5699 5699 5699 5700 5700 5700 5700 5700 5699 5698 5698 5699 5699 5698 5698 5698 5698 5697 5697 5696 5696 5696 5696 5696 5696 5696 5695 5695 5695 5695 5693 5692 5693 5693 5692 5691 5691 5692 5693 5693 5693 5694
5683 5684 5684 5684 5684 5685 5685 5685 5684 5684 5684 5684 5684 5685 5686 5686 5687 5688 5688 5689 5689 5689 5689 5690 5690 5690 5690 5690 5690 5690 5691 5691 5691 5692 5691 5691 5691 5691 5691 5691 5691 5692 5692 5693 5693 5693 5693 5694 5693 5694 5693 5692 5692 5693 5693 5693 5692 5692 5692 5691 5691 5690 5690 5689 5689 5689 5689 5689 5689 5688 5687 5687 5688 5687 5685 5685 5685 5685 5684 5684 5684 5685 5685 5686 5686
5678 5678 5678 5678 5679 5679 5679 5679 5679 5678 5678 5679 5679 5679 5679 5680 5680 5681 5681 5682 5682 5683 5683 5683 5684 5684 5684 5684 5684 5684 5684 5685 5685 5685 5685 5685 5685 5685 5685 5685 5685 5686 5686 5687 5687 5687 5687 5687 5687 5687 5687 5686 5686 5686 5687 5686 5686 5685 5685 5684 5684 5683 5683 5682 5682 5682 5681 5681 5681 5680 5680 5679 5679 5679 5678 5677 5677 5676 5677 5677 5676 5676 5676 5677 5678
5673 5673 5673 5673 5673 5673 5674 5674 5674 5674 5674 5674 5674 5674 5674 5675 5675 5675 5675 5676 5676 5677 5677 5678 5678 5678 5678 5678 5678 5678 5678 5678 5678 5679 5679 5679 5678 5678 5678 5678 5678 5679 5679 5680 5681 5680 5679 5679 5680 5680 5679 5679 5679 5679 5679 5679 5679 5678 5678 5677 5677 5676 5675 5675 5675 5674 5674 5673 5673 5672 5671 5671 5670 5670 5669 5668 5668 5667 5667 5668 5668 5667 5668 5668 5670
5667 5668 5669 5668 5668 5668 5668 5669 5669 5669 5669 5669 5669 5669 5669 5669 5669 5670 5670 5670 5670 5670 5671 5671 5672 5672 5672 5672 5671 5671 5671 5671 5671 5672 5672 5672 5672 5671 5671 5671 5671 5671 5672 5672 5672 5672 5672 5672 5672 5672 5671 5671 5671 5672 5672 5672 5672 5671 5670 5670 5670 5669 5667 5667 5667 5667 5666 5665 5665 5664 5663 5662 5662 5661 5660 5659 5659 5658 5658 5659 5659 5658 5659 5661 5661
5660 5662 5662 5663 5663 5663 5662 5663 5663 5663 5663 5663 5663 5663 5663 5663 5664 5664 5664 5664 5663 5663 5663 5663 5663 5663 5664 5664 5664 5664 5664 5664 5664 5664 5664 5664 5664 5664 5664 5664 5664 5664 5664 5664 5664 5664 5664 5664 5664 5664 5664 5663 5663 5663 5664 5664 5664 5663 5663 5663 5662 5662 5660 5660 5659 5658 5657 5657 5656 5655 5654 5653 5653 5653 5651 5650 5650 5649 5650 5650 5649 5648 5649 5651 5652
5651 5653 5654 5655 5656 5657 5657 5657 5657 5656 5656 5656 5656 5657 5657 5657 5657 5657 5657 5657 5657 5657 5657 5656 5656 5656 5656 5656 5656 5656 5656 5656 5657 5657 5657 5657 5657 5657 5657 5657 5657 5657 5657 5657 5656 5656 5656 5656 5656 5656 5656 5655 5655 5655 5655 5655 5655 5655 5655 5655 5655 5654 5653 5653 5651 5650 5649 5648 5647 5646 5646 5645 5645 5644 5643 5642 5641 5640 5640 5641 5640 5639 5640 5641 5641
5644 5644 5645 5647 5648 5649 5649 5650 5650 5650 5650 5650 5650 5650 5650 5650 5651 5651 5650 5651 5651 5651 5651 5650 5650 5650 5650 5649 5649 5649 5649 5649 5650 5650 5650 5650 5650 5650 5650 5650 5650 5649 5649 5649 5649 5648 5648 5648 5648 5647 5647 5647 5647 5647 5646 5646 5646 5646 5646 5646 5646 5645 5644 5643 5642 5642 5641 5640 5639 5638 5638 5637 5636 5636 5635 5634 5633 5632 5631 5631 5630 5630 5631 5631 5631
5635 5637 5638 5639 5640 5641 5642 5643 5643 5643 5643 5643 5643 5644 5644 5644 5644 5643 5643 5644 5644 5644 5644 5644 5643 5643 5643 5643 5643 5643 5643 5643 5643 5643 5643 5643 5642 5642 5642 5642 5642 5642 5642 5642 5641 5641 5640 5640 5640 5639 5639 5639 5638 5638 5638 5637 5637 5637 5637 5637 5636 5636 5635 5634 5633 5633 5632 5632 5631 5630 5629 5628 5627 5626 5626 5625 5624 5623 5622 5621 5621 5620 5621 5622 5622
5626 5627 5629 5630 5631 5632 5634 5635 5636 5637 5637 5637 5637 5638 5639 5639 5638 5638 5637 5638 5638 5637 5637 5637 5637 5636 5636 5636 5636 5637 5636 5636 5636 5636 5635 5635 5635 5635 5635 5635 5635 5635 5634 5634 5634 5634 5633 5633 5632 5632 5631 5631 5630 5630 5630 5629 5629 5629 5629 5628 5627 5626 5626 5625 5624 5624 5623 5623 5622 5621 5620 5619 5618 5617 5616 5615 5614 5613 5612 5612 5611 5611 5611 5612 5612
5618 5618 5620 5621 5622 5622 5623 5624 5626 5628 5630 5630 5631 5632 5633 5633 5633 5633 5632 5632 5632 5631 5631 5631 5630 5629 5629 5629 5629 5630 5630 5630 5629 5629 5629 5629 5629 5628 5628 5628 5628 5627 5627 5627 5627 5626 5626 5626 5625 5625 5624 5624 5624 5624 5623 5623 5622 5622 5621 5620 5619 5618 5618 5617 5616 5615 5614 5613 5613 5612 5611 5610 5609 5608 5607 5606 5605 5604 5603 5603 5602 5602 5601 5601 5602
5609 5609 5610 5611 5612 5613 5614 5615 5616 5618 5620 5622 5623 5624 5625 5626 5627 5627 5627 5628 5627 5626 5626 5625 5624 5623 5622 5622 5622 5623 5623 5623 5623 5623 5623 5623 5623 5623 5622 5621 5621 5621 5621 5620 5620 5619 5619 5618 5618 5618 5617 5617 5617 5617 5616 5615 5614 5614 5613 5612 5611 5611 5610 5609 5608 5607 5606 5605 5604 5603 5602 5601 5600 5599 5598 5597 5596 5595 5594 5594 5594 5593 5593 5592 5592
5600 5601 5601 5602 5604 5605 5605 5606 5607 5609 5611 5613 5615 5616 5616 5617 5618 5619 5620 5621 5622 5622 5621 5620 5619 5617 5616 5616 5616 5616 5616 5616 5616 5616 5617 5617 5617 5617 5616 5615 5615 5614 5614 5614 5614 5613 5613 5612 5612 5611 5611 5611 5610 5609 5608 5607 5607 5606 5606 5605 5603 5602 5601 5600 5599 5598 5598 5597 5596 5595 5594 5593 5592 5591 5590 5589 5588 5587 5586 5585 5585 5584 5584 5584 5583
5591 5592 5593 5594 5595 5596 5597 5598 5599 5600 5602 5604 5606 5607 5607 5607 5608 5610 5611 5612 5614 5614 5615 5614 5614 5612 5611 5610 5610 5610 5610 5610 5610 5610 5610 5610 5610 5610 5610 5609 5609 5608 5608 5608 5608 5607 5607 5606 5606 5605 5604 5604 5603 5602 5601 5600 5600 5599 5598 5597 5596 5594 5593 5592 5591 5591 5590 5589 5588 5587 5586 5585 5583 5582 5582 5580 5579 5579 5577 5577 5576 5575 5575 5575 5575
5581 5583 5584 5586 5587 5588 5589 5590 5591 5592 5594 5596 5597 5597 5598 5599 5600 5601 5602 5604 5604 5605 5606 5607 5608 5607 5605 5605 5605 5605 5605 5604 5604 5604 5604 5604 5604 5604 5604 5604 5603 5602 5602 5602 5602 5601 5601 5600 5599 5598 5598 5597 5596 5595 5594 5593 5592 5592 5591 5590 5588 5587 5586 5585 5584 5583 5582 5581 5580 5579 5578 5577 5576 5574 5573 5572 5571 5570 5569 5568 5567 5567 5567 5566 5566
5571 5572 5574 5576 5577 5578 5579 5581 5583 5584 5585 5586 5587 5589 5590 5591 5592 5593 5594 5596 5596 5597 5598 5600 5601 5599 5598 5598 5599 5599 5599 5598 5598 5598 5598 5598 5598 5598 5598 5598 5597 5597 5596 5596 5596 5596 5595 5594 5593 5593 5592 5591 5590 5589 5588 5587 5585 5584 5583 5582 5581 5579 5578 5577 5576 5575 5574 5573 5572 5571 5570 5568 5567 5566 5564 5563 5562 5561 5559 5558 5558 5558 5557 5556 5556
5560 5562 5563 5565 5566 5568 5570 5572 5574 5575 5576 5577 5579 5581 5583 5584 5585 5586 5587 5588 5589 5590 5592 5593 5593 5592 5592 5593 5593 5593 5593 5592 5592 5592 5592 5592 5592 5592 5591 5591 5591 5591 5591 5591 5591 5590 5590 5589 5588 5587 5586 5585 5584 5583 5582 5580 5579 5578 5576 5575 5574 5573 5571 5570 5569 5568 5566 5565 5564 5562 5561 5560 5559 5557 5556 5555 5553 5552 5550 5548 5548 5548 5547 5546 5546
5550 5551 5553 5555 5556 5558 5559 5562 5565 5566 5567 5568 5571 5573 5575 5577 5578 5579 5580 5581 5582 5583 5585 5585 5585 5585 5586 5587 5587 5587 5587 5587 5587 5587 5587 5586 5586 5586 5586 5586 5586 5586 5586 5586 5585 5585 5584 5584 5583 5582 5581 5580 5579 5577 5576 5575 5573 5572 5571 5569 5568 5566 5565 5564 5562 5560 5559 5557 5555 5554 5553 5551 5550 5548 5547 5546 5544 5542 5540 5539 5538 5537 5536 5536 5535
5540 5542 5543 5545 5547 5548 5550 5552 5555 5557 5558 5560 5562 5564 5567 5569 5570 5572 5573 5574 5575 5577 5577 5578 5578 5579 5580 5580 5580 5581 5581 5581 5581 5581 5581 5581 5581 5581 5581 5581 5581 5581 5580 5580 5579 5579 5579 5579 5578 5577 5576 5575 5574 5572 5571 5570 5569 5567 5565 5564 5562 5561 5559 5557 5555 5553 5551 5549 5547 5546 5544 5542 5541 5539 5537 5536 5534 5533 5531 5529 5528 5527 5526 5525 5524
5530 5532 5534 5536 5538 5539 5541 5543 5545 5548 5550 5552 5554 5556 5559 5561 5563 5565 5566 5568 5569 5570 5570 5571 5571 5572 5573 5573 5574 5575 5575 5575 5575 5575 5575 5575 5575 5575 5575 5575 5575 5575 5575 5574 5574 5574 5574 5573 5573 5572 5571 5570 5569 5568 5567 5566 5564 5562 5561 5558 5556 5554 5552 5550 5548 5546 5543 5541 5539 5537 5535 5533 5532 5530 5528 5526 5525 5524 5522 5520 5518 5517 5516 5515 5514
5520 5523 5525 5526 5528 5530 5532 5534 5537 5539 5542 5544 5546 5548 5551 5554 5556 5558 5560 5561 5562 5563 5563 5564 5565 5566 5566 5567 5568 5568 5569 5569 5569 5569 5570 5570 5570 5570 5570 5570 5570 5570 5570 5569 5569 5569 5569 5569 5569 5568 5568 5567 5566 5565 5563 5562 5560 5558 5556 5553 5551 5548 5546 5543 5541 5538 5536 5534 5531 5529 5527 5524 5522 5521 5519 5518 5516 5515 5513 5511 5510 5508 5508 5507 5505
5511 5513 5515 5517 5519 5521 5523 5526 5529 5531 5533 5535 5538 5540 5543 5546 5549 5551 5553 5554 5555 5556 5557 5558 5559 5560 5560 5561 5562 5562 5563 5563 5563 5564 5564 5564 5565 5564 5564 5564 5565 5565 5565 5564 5565 5565 5565 5565 5565 5565 5564 5564 5562 5561 5560 5558 5556 5553 5551 5548 5546 5543 5540 5536 5534 5531 5528 5526 5523 5521 5518 5516 5514 5513 5512 5510 5508 5507 5506 5504 5503 5502 5501 5500 5498
5501 5504 5506 5508 5510 5512 5514 5517 5520 5523 5525 5527 5530 5533 5535 5538 5541 5543 5545 5547 5548 5550 5551 5552 5553 5554 5554 5555 5556 5556 5557 5558 5558 5559 5559 5559 5559 5559 5559 5560 5560 5560 5560 5561 5561 5562 5562 5562 5562 5562 5562 5561 5559 5558 5556 5554 5552 5549 5546 5543 5540 5536 5533 5529 5526 5523 5521 5518 5516 5513 5511 5510 5508 5507 5505 5504 5502 5501 5501 5500 5498 5497 5496 5494 5493
5490 5493 5496 5499 5501 5503 5505 5508 5511 5515 5517 5520 5522 5525 5527 5530 5533 5536 5538 5540 5542 5543 5545 5546 5547 5548 5549 5549 5550 5551 5552 5552 5553 5553 5553 5554 5554 5554 5555 5555 5556 5556 5557 5558 5559 5559 5560 5560 5560 5560 5559 5558 5557 5555 5552 5550 5547 5544 5541 5537 5533 5530 5526 5523 5520 5517 5514 5512 5510 5508 5506 5505 5503 5502 5501 5500 5499 5498 5497 5496 5494 5493 5492 5490 5488
5480 5483 5486 5489 5491 5493 5496 5499 5502 5506 5509 5512 5514 5517 5519 5522 5526 5528 5531 5533 5535 5537 5538 5540 5541 5542 5543 5544 5545 5546 5546 5547 5547 5548 5548 5549 5549 5550 5551 5552 5553 5554 5555 5556 5556 5557 5557 5558 5558 5557 5556 5555 5553 5551 5549 5546 5543 5539 5536 5532 5528 5524 5520 5517 5514 5511 5509 5507 5505 5504 5502 5501 5500 5499 5498 5497 5496 5495 5493 5492 5491 5489 5488 5486 5485
5472 5474 5477 5479 5482 5484 5487 5490 5494 5497 5500 5504 5507 5509 5512 5515 5518 5521 5524 5526 5528 5530 5532 5534 5535 5536 5537 5539 5540 5540 5541 5541 5542 5543 5544 5545 5546 5547 5548 5549 5550 5551 5552 5553 5554 5555 5555 5555 5555 5555 5553 5552 5550 5548 5545 5542 5539 5535 5532 5527 5522 5518 5514 5511 5509 5507 5505 5503 5502 5500 5499 5498 5497 5496 5495 5494 5493 5491 5490 5489 5487 5485 5483 5482 5480
5466 5468 5470 5472 5474 5476 5479 5482 5486 5489 5492 5496 5499 5502 5506 5509 5512 5515 5517 5520 5522 5524 5526 5528 5530 5531 5533 5534 5534 5535 5536 5537 5538 5539 5540 5542 5543 5544 5545 5547 5548 5549 5550 5551 5552 5553 5553 5553 5553 5552 5551 5549 5547 5545 5543 5539 5536 5532 5528 5522 5516 5512 5509 5507 5505 5503 5502 5501 5499 5498 5497 5496 5495 5495 5493 5492 5491 5489 5487 5485 5483 5481 5479 5477 5476
5463 5464 5466 5467 5469 5471 5473 5476 5480 5483 5486 5490 5493 5497 5500 5504 5507 5509 5512 5514 5517 5519 5521 5523 5525 5526 5528 5529 5530 5531 5532 5533 5534 5536 5538 5540 5541 5542 5544 5545 5546 5547 5548 5549 5550 5551 5551 5551 5550 5549 5548 5547 5545 5543 5540 5537 5533 5529 5523 5517 5511 5508 5505 5504 5502 5501 5500 5499 5497 5496 5495 5495 5494 5493 5492 5490 5488 5486 5484 5482 5480 5477 5475 5473 5472
5462 5462 5463 5464 5466 5467 5469 5472 5475 5478 5482 5486 5489 5493 5496 5500 5503 5505 5508 5510 5513 5515 5517 5519 5521 5522 5524 5525 5527 5528 5529 5530 5532 5535 5536 5538 5539 5541 5542 5543 5544 5545 5546 5547 5548 5549 5548 5548 5547 5547 5546 5545 5543 5541 5538 5535 5530 5526 5520 5513 5508 5505 5503 5502 5500 5499 5498 5497 5496 5495 5494 5493 5492 5491 5490 5488 5486 5483 5481 5479 5476 5474 5472 5470 5469
5460 5461 5462 5463 5463 5465 5467 5469 5472 5476 5479 5483 5487 5490 5493 5496 5499 5502 5504 5507 5510 5512 5514 5516 5518 5520 5521 5523 5524 5526 5527 5529 5531 5533 5535 5536 5538 5539 5540 5541 5542 5543 5544 5545 5546 5546 5546 5546 5545 5545 5544 5543 5541 5539 5536 5532 5528 5523 5517 5511 5506 5503 5501 5500 5498 5497 5496 5495 5495 5494 5493 5492 5491 5489 5488 5486 5484 5481 5479 5477 5474 5472 5469 5467 5466
5460 5460 5461 5462 5462 5464 5466 5468 5471 5475 5479 5482 5485 5488 5491 5494 5496 5499 5502 5505 5507 5510 5512 5514 5516 5518 5520 5521 5522 5524 5526 5528 5530 5532 5533 5535 5536 5537 5538 5540 5541 5542 5543 5543 5544 5544 5544 5544 5543 5543 5542 5541 5539 5537 5534 5530 5526 5521 5515 5509 5504 5502 5500 5498 5496 5495 5494 5494 5493 5492 5491 5490 5489 5488 5486 5484 5482 5480 5478 5475 5472 5470 5467 5465 5464
5462 5462 5462 5462 5463 5465 5467 5469 5472 5476 5480 5483 5486 5489 5491 5494 5496 5499 5501 5504 5506 5509 5511 5513 5515 5517 5518 5520 5521 5523 5525 5527 5529 5530 5532 5533 5534 5536 5537 5538 5539 5540 5541 5541 5541 5542 5542 5542 5542 5541 5540 5539 5537 5535 5532 5528 5524 5520 5514 5508 5504 5500 5498 5496 5495 5494 5493 5493 5492 5491 5490 5489 5488 5486 5485 5483 5481 5479 5476 5474 5471 5469 5467 5465 5463
5466 5466 5466 5466 5467 5468 5470 5472 5475 5478 5481 5485 5488 5491 5493 5495 5497 5499 5501 5503 5506 5508 5510 5512 5514 5515 5517 5519 5521 5523 5524 5526 5527 5529 5530 5532 5533 5534 5535 5536 5537 5538 5539 5539 5540 5541 5541 5540 5540 5540 5539 5537 5536 5533 5530 5527 5523 5519 5513 5508 5504 5500 5498 5496 5495 5493 5493 5492 5491 5490 5489 5488 5486 5485 5484 5482 5480 5478 5475 5473 5471 5469 5467 5465 5463
5470 5470 5471 5471 5472 5473 5475 5477 5479 5481 5484 5487 5490 5492 5493 5495 5497 5499 5501 5503 5505 5508 5509 5511 5513 5515 5516 5518 5520 5521 5523 5524 5526 5528 5529 5530 5532 5533 5534 5535 5535 5536 5537 5538 5539 5539 5539 5539 5539 5538 5537 5536 5534 5531 5529 5526 5522 5517 5513 5509 5505 5501 5498 5496 5494 5493 5492 5491 5490 5489 5488 5487 5486 5484 5483 5482 5480 5477 5475 5474 5472 5470 5468 5466 5464
5473 5473 5474 5475 5476 5477 5479 5480 5482 5484 5486 5489 5491 5492 5494 5495 5497 5499 5501 5503 5505 5507 5509 5510 5512 5513 5515 5517 5518 5520 5521 5523 5525 5527 5528 5529 5530 5531 5532 5533 5534 5535 5536 5537 5537 5537 5537 5537 5537 5536 5535 5534 5532 5530 5527 5525 5521 5517 5513 5509 5505 5501 5498 5495 5493 5492 5491 5490 5490 5488 5487 5486 5485 5484 5482 5481 5479 5477 5476 5474 5472 5471 5469 5467 5465
5476 5476 5477 5478 5479 5480 5481 5483 5485 5486 5488 5490 5492 5493 5495 5496 5498 5500 5502 5503 5505 5507 5508 5509 5511 5512 5514 5516 5517 5519 5521 5523 5524 5526 5527 5529 5530 5530 5531 5532 5533 5533 5534 5535 5535 5535 5535 5535 5535 5534 5533 5532 5530 5528 5526 5523 5520 5517 5513 5510 5506 5502 5499 5495 5493 5491 5490 5489 5489 5488 5487 5486 5485 5484 5482 5481 5479 5477 5476 5475 5473 5472 5470 5469 5467
5479 5480 5480 5481 5482 5483 5484 5486 5487 5489 5490 5492 5493 5494 5496 5497 5499 5500 5502 5503 5505 5506 5507 5509 5510 5512 5514 5515 5517 5519 5521 5523 5524 5526 5527 5528 5529 5529 5530 5531 5531 5532 5532 5533 5533 5533 5533 5533 5533 5532 5531 5530 5528 5527 5525 5522 5519 5516 5514 5510 5507 5503 5500 5496 5493 5491 5489 5489 5488 5487 5486 5485 5484 5483 5482 5481 5479 5477 5476 5475 5474 5472 5471 5470 5469
5482 5483 5483 5484 5485 5486 5487 5489 5490 5491 5492 5493 5494 5495 5497 5498 5499 5500 5502 5503 5504 5505 5507 5508 5510 5512 5514 5516 5517 5519 5521 5522 5524 5525 5526 5526 5527 5528 5528 5529 5529 5530 5530 5531 5531 5531 5531 5531 5531 5530 5529 5528 5527 5525 5524 5521 5519 5516 5514 5511 5508 5504 5501 5497 5494 5491 5489 5488 5487 5486 5485 5485 5484 5483 5482 5481 5479 5478 5477 5475 5474 5473 5472 5471 5470
5485 5485 5485 5486 5487 5488 5489 5490 5491 5492 5493 5494 5495 5496 5497 5498 5499 5500 5501 5502 5503 5505 5506 5508 5510 5512 5514 5516 5517 5519 5520 5522 5523 5523 5524 5525 5526 5526 5527 5527 5527 5528 5528 5528 5529 5529 5529 5529 5529 5528 5527 5526 5525 5524 5522 5520 5518 5516 5514 5511 5509 5505 5502 5498 5494 5491 5489 5487 5486 5485 5485 5484 5483 5483 5482 5481 5480 5479 5478 5477 5475 5475 5474 5473 5472
5487 5487 5487 5488 5488 5489 5490 5491 5491 5492 5493 5494 5495 5495 5496 5497 5498 5499 5500 5502 5503 5505 5506 5508 5510 5512 5514 5516 5517 5518 5519 5520 5521 5522 5523 5523 5524 5524 5525 5525 5525 5526 5526 5526 5526 5527 5527 5527 5526 5526 5525 5525 5524 5523 5521 5519 5517 5515 5513 5511 5509 5506 5503 5499 5496 5493 5490 5488 5486 5485 5484 5484 5483 5482 5482 5481 5480 5479 5478 5478 5477 5476 5475 5474 5473